Regional Weather Roundup
Issued by NWS Kansas City/Pleasant Hill, MO

Home | Current Version | Previous Version | Text Only | Print | Product List | Glossary On
Versions: 1 2 3 4 5 6 7 8 9 10 11 12 13 14 15 16 17 18 19 20 21 22 23 24 25 26 27
000
ASUS43 KEAX 240710
RWREAX

WEATHER ROUNDUP FOR EASTERN KANSAS AND NORTHWEST MISSOURI
NATIONAL WEATHER SERVICE KANSAS CITY/PLEASANT HILL MO
200 AM CDT THU MAY 24 2018

KSZ040-057-103>105-MOZ028-029-037-043-240800-
...KANSAS CITY METROPOLITAN AREA...

CITY           SKY/WX    TMP DP  RH WIND       PRES   REMARKS
K.C. INTL      MOCLDY    70  64  81 S10       30.07S
K.C. DOWNTOWN  CLOUDY    73  63  70 SE5       30.06S
LEES SUMMIT    CLEAR     68  64  87 SE8       30.09S
OLATHE - IXD   CLOUDY    68  65  90 S6        30.07F
OLATHE - OJC   PTCLDY    67  65  93 SE8       30.07F
LAWRENCE       CLOUDY    69  66  90 S7        30.05F

$$

MOZ001>008-011>017-020>025-030>033-038>040-044>046-053-054-240800-
...NORTHERN AND CENTRAL MISSOURI...

CITY           SKY/WX    TMP DP  RH WIND       PRES   REMARKS
ST. JOSEPH     MOCLDY    72  65  78 SE8       30.05S
MOSBY          MOSUNNY   70  63  78 CALM      30.07F
WARRENSBURG    MOCLDY    64  63  94 SE6       30.09F
WHITEMAN AFB   PTCLDY    67  65  93 S6        30.06F
CLINTON        PTCLDY    64  64 100 CALM      30.10F
SEDALIA        PTCLDY    68  67  96 S6        30.11F
WARSAW         NOT AVBL
CHILLICOTHE      N/A     71  65  81 S3        30.10S
KIRKSVILLE     CLEAR    N/A N/A N/A S6        30.12F

$$

MOZ041-047>049-056>058-063>065-088>090-097-240800-
...EASTERN AND SOUTHERN MISSOURI...

CITY           SKY/WX    TMP DP  RH WIND       PRES   REMARKS
ST. LOUIS INTL MOCLDY    74  63  68 CALM      30.12R
SPIRIT OF STL  CLEAR     67  65  93 CALM      30.10S
COLUMBIA       CLOUDY    70  65  84 CALM      30.12F
JEFFERSON CITY CLEAR     69  66  90 CALM      30.11F
ROLLA          CLEAR     66  64  93 CALM      30.14F
OSAGE BEACH    PTCLDY    65  64  97 CALM      30.13F
SPRINGFIELD    MOCLDY    66  63  90 S7        30.11F
BRANSON        CLOUDY    64  64 100 CALM      30.13F
JOPLIN         CLOUDY    66  65  96 E3        30.09F
WEST PLAINS    CLOUDY    67  65  93 NE3       30.14F

$$

IAZ060-094-KSZ022-034>040-054-083-096-NEZ052-066-093-240800-
...KANSAS...SOUTHEAST NEBRASKA AND IOWA...

CITY           SKY/WX    TMP DP  RH WIND       PRES   REMARKS
TOPEKA         CLOUDY    71  68  90 S7        30.05S
MANHATTAN      MOCLDY    71  64  78 CALM      30.02R
EMPORIA        PTCLDY    68  66  93 S12       30.05S
CHANUTE        PTCLDY    69  68  96 SE9       30.07F
WICHITA        CLOUDY    69  61  75 S10       30.02R
OMAHA          MOCLDY    73  62  68 S8        30.03R
LINCOLN        CLOUDY    72  64  76 S9        30.01F
FALLS CITY     CLOUDY    72  65  78 SE8       30.03S
LAMONI         PTCLDY    71  65  81 SE5       30.09R
DES MOINES     CLOUDY    72  64  76 SE8       30.07R

$$





USA.gov is the U.S. government's official web portal to all federal, state and local government web resources and services.